Location: *
(13.2257°S, 48.7193°W)
Time: 13:29:33
(UTC+00:00)

Cosmos 2237 - Pass Details

Date: 13 February 2026
Orbit: 849 x 854 km, 70.8° (Epoch: 11 March)

Event Time Altitude Azimuth Distance (km) Brightness Sun altitude
Rises 07:51:26 0° 203° (SSW) 3,428 7.3 -19.8°
Reaches altitude 10° 07:53:55 10° 206° (SSW) 2,487 6.6 -19.2°
Maximum altitude 07:59:32 59° 285° (WNW) 975 4.2 -17.9°
Drops below altitude 10° 08:05:06 10° 4° (N) 2,464 6.5 -16.7°
Sets 08:07:34 0° 7° (N) 3,393 7.2 -16.1°
